Find Starlink 1762

NORAD ID: 46342 Int'l Des: 2020-062 Owner: SPXS Country: US Constellation: starlink operational
LEOCIRCULAR

リアルタイム位置

3D地球を読み込み中...

Starlink 1762について

説明を読み込み中...

次回通過

Passes for default location (London). Set your location on the main map for personalized predictions.

高度履歴

Loading altitude history...

軌道要素

1 46342U 20062T 26121.70999875 .00050623 00000-0 14946-2 0 9997
2 46342 53.1548 124.0183 0004745 55.1041 305.0407 15.34491452312522
Epoch: May 1, 2026 • Age: 12 hours

現在のステータス

高度 463.9 km
速度 7.64 km/s
衛星直下点 6.77°N, 5.66°E
打ち上げ日 Sep 3, 2020
運用期間 5.6 years
タイプ internet

技術仕様

分類 Payload
質量 260.00 kg
乾燥質量 248.00 kg
総質量 260.00 kg
長さ 0.20 m
直径 2.80 m
スパン 9.00 m
形状 Box + pan
製造者 SPXS
バスタイプ Starlink
フェーズステータス In Orbit
所有者/国 SPXS/US

Most Searched